GSAT0101 (GALILEO-PFM)

Last updated on Sun Jul 06 2025 00:02:31 GMT+0000 (Coordinated Universal Time)

1 37846U 11060A 25186.17663243 -.00000088 00000+0 00000+0 0 9995 2 37846 57.0918 351.1699 0002667 56.6575 303.3728 1.70475966 85205
UTC large
Height (km)
Speed (km/s)
/
Latitude / Longitude
Inclination (degrees)
Orbital Period (minutes)
Azimuth
Elevation
Range (km)
Doppler Factor

Next 0 passes for location: London (51.5072 / 0.1276)

Sorry there are no passes over London.